Overview Statistics Trail Chart Weather Telemetry Raw packets
 

This is the latest recevied weather packets stored in our database for station/object DG3NAD-21. If no packets are shown the sender has not sent any weather packets the latest 10 day(s).

<< 1 2 3 4 5 >>
Time Temp. Humidity Pressure Rain* Wind** Luminosity Snow
1788597831 22.78° C 48% 1024.1 hPa - - - -
1788596930 22.78° C 47% 1024 hPa - - - -
1788596030 22.22° C 48% 1024.1 hPa - - - -
1788595130 22.22° C 47% 1024 hPa - - - -
1788594230 22.78° C 47% 1023.8 hPa - - - -
1788593329 22.22° C 48% 1023.6 hPa - - - -
1788592429 22.78° C 48% 1023.6 hPa - - - -
1788591529 22.22° C 49% 1023.4 hPa - - - -
1788590629 21.67° C 52% 1023.5 hPa - - - -
1788589729 21.67° C 53% 1023.4 hPa - - - -
1788588829 21.11° C 54% 1023.2 hPa - - - -
1788587927 21.11° C 53% 1022.9 hPa - - - -
1788587027 21.11° C 53% 1022.8 hPa - - - -
1788586127 20.56° C 54% 1022.6 hPa - - - -
1788585227 20.56° C 54% 1022.5 hPa - - - -
1788584327 20.56° C 53% 1022.3 hPa - - - -
1788583427 20.56° C 53% 1022.2 hPa - - - -
1788582527 20.56° C 52% 1022.2 hPa - - - -
1788581627 21.11° C 52% 1022 hPa - - - -
1788580727 21.11° C 52% 1021.8 hPa - - - -
1788579827 21.11° C 52% 1021.5 hPa - - - -
1788578926 21.11° C 51% 1021.5 hPa - - - -
1788578026 21.11° C 51% 1021.4 hPa - - - -
1788577126 21.67° C 51% 1021.2 hPa - - - -
1788576226 21.67° C 51% 1021.2 hPa - - - -

* Rain since midnight (hover to see other rain measurements)
** Current wind speed in m/s (hover to see current wind gust speed)